Regional Weather Roundup
Issued by NWS Goodland, KS

Home | Current Version | Previous Version | Text Only | Print | Product List | Glossary Off
Versions: 1 2 3 4 5 6 7 8 9 10 11 12 13 14 15 16 17 18 19 20 21 22 23 24 25 26 27 28 29 30 31 32 33 34 35 36 37 38 39 40 41 42 43 44 45 46 47 48 49 50

000
ASUS43 KGLD 252359
RWRGLD

GOODLAND FORECAST AREA HOURLY WEATHER ROUNDUP
NATIONAL WEATHER SERVICE GOODLAND KS
500 PM MST THU DEC 25 2014

...OFFICIAL OBSERVATIONS...

CITY           SKY/WX    TMP DP  RH WIND       PRES   REMARKS
GOODLAND KS    CLEAR     33  28  81 N12       29.59R
HILL CITY KS   PTCLDY    39  25  57 NW12      29.57R
IMPERIAL NEB   CLOUDY    31  26  82 N22G28    29.66R WCI  18
MCCOOK NEB     PTCLDY    34  27  75 N15       29.62R
AKRON CO       CLOUDY    28  27  96 N23       29.62R WCI  14
BURLINGTON CO  CLEAR     34  27  75 N16       29.58R
LIMON CO       CLOUDY    31  26  82 N17       29.60R WCI  19
$$

...UNOFFICIAL OBSERVATIONS...

CITY           SKY/WX    TMP DP  RH WIND       PRES   REMARKS
COLBY KS       CLEAR     34  28  80 N10       29.58R
GOVE KS          N/A     40  32  73 MISG        N/A
NORTON KS      CLEAR     34  21  60 N8        29.57R
SHARON SPRINGS   N/A     37  25  62 N12         N/A
TRIBUNE KS     MOCLDY    43  30  61 N16       29.55R
KIT CARSON CO    N/A     35  26  70 MISG        N/A
YUMA CO          N/A     31  27  84 NE18        N/A  WCI  19
$$



USA.gov is the U.S. government's official web portal to all federal, state and local government web resources and services.